When you browse on this site, cookies collect data to enhance your experience and personalize the content and advertising you see.
Visit our Privacy Policy to learn more. By continuing to use the site, you agree to this use of cookies and data.
  • In Austria
  • List of Countries
  • For 7 days
  • Water Temperature
  • Weather Map
  • News
  • Weather Widgets
  • user-avatar
    Login

    Hourly Weather Konec

    Today, 29 May, Friday

    Time Temperature Precipitation Wind Pressure Humidity
    00:00 +13°C° 0 mm 2 mps 747 mmHg 77%
    01:00 +12°C° 0 mm 2 mps 747 mmHg 79%
    02:00 +11°C° 0 mm 3 mps 747 mmHg 83%
    03:00 +11°C° 0.2 mm 3 mps 746 mmHg 87%
    04:00 +10°C° 0.2 mm 3 mps 746 mmHg 90%
    05:00 +10°C° 0.2 mm 2 mps 745 mmHg 94%
    06:00 +11°C° 0.3 mm 3 mps 745 mmHg 94%
    07:00 +11°C° 0.3 mm 3 mps 745 mmHg 94%
    08:00 +11°C° 0.3 mm 3 mps 745 mmHg 94%
    09:00 +11°C° 0.4 mm 4 mps 745 mmHg 94%
    10:00 +12°C° 0.4 mm 4 mps 745 mmHg 94%
    11:00 +12°C° 0.4 mm 4 mps 745 mmHg 94%
    12:00 +12°C° 0.4 mm 4 mps 745 mmHg 94%
    13:00 +12°C° 0.4 mm 4 mps 745 mmHg 93%
    14:00 +12°C° 0.4 mm 4 mps 745 mmHg 93%
    15:00 +12°C° 0 mm 4 mps 744 mmHg 90%
    16:00 +13°C° 0 mm 5 mps 744 mmHg 87%
    17:00 +14°C° 0 mm 5 mps 744 mmHg 85%
    18:00 +13°C° 0 mm 4 mps 744 mmHg 85%
    19:00 +13°C° 0 mm 4 mps 744 mmHg 85%
    20:00 +13°C° 0 mm 4 mps 744 mmHg 85%
    21:00 +12°C° 0 mm 4 mps 744 mmHg 86%
    22:00 +12°C° 0 mm 4 mps 743 mmHg 86%
    23:00 +12°C° 0 mm 4 mps 743 mmHg 87%

    Tomorrow, 30 May, Saturday

    Time Temperature Precipitation Wind Pressure Humidity
    00:00 +12°C° 0 mm 5 mps 743 mmHg 88%
    01:00 +10°C° 0 mm 5 mps 743 mmHg 88%
    02:00 +10°C° 0 mm 5 mps 743 mmHg 89%
    03:00 +10°C° 0.1 mm 5 mps 742 mmHg 89%
    04:00 +12°C° 0.1 mm 5 mps 742 mmHg 89%
    05:00 +12°C° 0.1 mm 5 mps 742 mmHg 89%
    06:00 +12°C° 0.5 mm 5 mps 742 mmHg 90%
    07:00 +11°C° 0.5 mm 6 mps 742 mmHg 91%
    08:00 +11°C° 0.5 mm 6 mps 742 mmHg 92%
    09:00 +11°C° 1.5 mm 6 mps 741 mmHg 93%
    10:00 +11°C° 1.5 mm 7 mps 741 mmHg 94%
    11:00 +11°C° 1.5 mm 7 mps 741 mmHg 96%
    12:00 +11°C° 1.2 mm 7 mps 741 mmHg 96%
    13:00 +11°C° 1.2 mm 7 mps 741 mmHg 95%
    14:00 +11°C° 1.2 mm 7 mps 741 mmHg 95%
    15:00 +12°C° 0.2 mm 7 mps 740 mmHg 94%
    16:00 +12°C° 0.2 mm 7 mps 740 mmHg 94%
    17:00 +14°C° 0.2 mm 7 mps 740 mmHg 93%
    18:00 +14°C° 0.1 mm 7 mps 740 mmHg 90%
    19:00 +14°C° 0.1 mm 7 mps 740 mmHg 88%
    20:00 +14°C° 0.1 mm 7 mps 739 mmHg 85%
    21:00 +14°C° 0 mm 7 mps 739 mmHg 82%
    22:00 +15°C° 0 mm 7 mps 740 mmHg 79%
    23:00 +15°C° 0 mm 7 mps 740 mmHg 75%

    Day after tomorrow, 31 May, Sunday

    Time Temperature Precipitation Wind Pressure Humidity
    00:00 +14°C° 0 mm 7 mps 740 mmHg 75%
    01:00 +14°C° 0 mm 7 mps 740 mmHg 76%
    02:00 +14°C° 0 mm 7 mps 740 mmHg 76%
    03:00 +12°C° 0 mm 7 mps 740 mmHg 74%
    04:00 +12°C° 0 mm 7 mps 740 mmHg 73%
    05:00 +12°C° 0 mm 7 mps 740 mmHg 72%
    06:00 +12°C° 0 mm 8 mps 741 mmHg 68%
    07:00 +13°C° 0 mm 8 mps 741 mmHg 64%
    08:00 +13°C° 0 mm 8 mps 741 mmHg 61%
    09:00 +15°C° 0 mm 8 mps 742 mmHg 58%
    10:00 +16°C° 0 mm 7 mps 742 mmHg 55%
    11:00 +17°C° 0 mm 7 mps 743 mmHg 52%
    12:00 +18°C° 0 mm 7 mps 743 mmHg 50%
    13:00 +18°C° 0 mm 7 mps 743 mmHg 48%
    14:00 +20°C° 0 mm 7 mps 744 mmHg 47%
    15:00 +19°C° 0 mm 6 mps 744 mmHg 50%
    16:00 +17°C° 0 mm 5 mps 744 mmHg 52%
    17:00 +17°C° 0 mm 5 mps 744 mmHg 55%
    18:00 +15°C° 0 mm 4 mps 745 mmHg 60%
    19:00 +14°C° 0 mm 4 mps 745 mmHg 65%
    20:00 +12°C° 0 mm 3 mps 745 mmHg 69%
    21:00 +11°C° 0 mm 3 mps 746 mmHg 67%
    22:00 +10°C° 0 mm 3 mps 746 mmHg 66%
    23:00 +9°C° 0 mm 3 mps 747 mmHg 64%

    1 June, Monday

    Time Temperature Precipitation Wind Pressure Humidity
    00:00 +9°C° 0 mm 3 mps 747 mmHg 67%
    01:00 +8°C° 0 mm 3 mps 747 mmHg 69%
    02:00 +7°C° 0 mm 3 mps 748 mmHg 72%
    03:00 +7°C° 0 mm 3 mps 748 mmHg 73%
    04:00 +7°C° 0 mm 3 mps 748 mmHg 73%
    05:00 +5°C° 0 mm 3 mps 748 mmHg 74%
    06:00 +7°C° 0 mm 4 mps 748 mmHg 67%
    07:00 +8°C° 0 mm 4 mps 748 mmHg 60%
    08:00 +10°C° 0 mm 4 mps 748 mmHg 53%
    09:00 +11°C° 0 mm 4 mps 748 mmHg 50%
    10:00 +12°C° 0 mm 5 mps 748 mmHg 48%
    11:00 +13°C° 0 mm 5 mps 748 mmHg 45%
    12:00 +14°C° 0 mm 4 mps 748 mmHg 44%
    13:00 +14°C° 0 mm 4 mps 748 mmHg 43%
    14:00 +15°C° 0 mm 4 mps 748 mmHg 42%
    15:00 +15°C° 0 mm 4 mps 747 mmHg 44%
    16:00 +14°C° 0 mm 3 mps 747 mmHg 47%
    17:00 +14°C° 0 mm 3 mps 747 mmHg 50%
    18:00 +14°C° 0 mm 2 mps 747 mmHg 54%
    19:00 +13°C° 0 mm 2 mps 747 mmHg 59%
    20:00 +10°C° 0 mm 2 mps 747 mmHg 64%
    21:00 +9°C° 0 mm 2 mps 747 mmHg 68%
    22:00 +8°C° 0 mm 1 mps 747 mmHg 73%
    23:00 +7°C° 0 mm 1 mps 747 mmHg 77%

    2 June, Tuesday

    Time Temperature Precipitation Wind Pressure Humidity
    00:00 +6°C° 0 mm 1 mps 747 mmHg 80%
    01:00 +6°C° 0 mm 1 mps 747 mmHg 82%
    02:00 +4°C° 0 mm 0 mps 747 mmHg 84%
    03:00 +6°C° 0 mm 1 mps 747 mmHg 82%
    04:00 +7°C° 0 mm 1 mps 748 mmHg 79%
    05:00 +7°C° 0 mm 1 mps 748 mmHg 77%
    06:00 +9°C° 0 mm 1 mps 748 mmHg 69%
    07:00 +11°C° 0 mm 1 mps 748 mmHg 61%
    08:00 +13°C° 0 mm 2 mps 748 mmHg 52%
    09:00 +14°C° 0 mm 2 mps 747 mmHg 51%
    10:00 +14°C° 0 mm 2 mps 747 mmHg 50%
    11:00 +14°C° 0 mm 2 mps 747 mmHg 49%
    12:00 +15°C° 0 mm 2 mps 747 mmHg 48%
    13:00 +15°C° 0 mm 2 mps 747 mmHg 47%
    14:00 +16°C° 0 mm 2 mps 747 mmHg 46%
    15:00 +16°C° 0 mm 2 mps 746 mmHg 47%
    16:00 +16°C° 0 mm 2 mps 746 mmHg 48%
    17:00 +16°C° 0 mm 2 mps 746 mmHg 48%
    18:00 +14°C° 0 mm 2 mps 746 mmHg 56%
    19:00 +12°C° 0 mm 1 mps 745 mmHg 63%
    20:00 +10°C° 0 mm 1 mps 745 mmHg 70%
    21:00 +9°C° 0 mm 1 mps 745 mmHg 71%
    22:00 +9°C° 0 mm 1 mps 745 mmHg 71%
    23:00 +7°C° 0 mm 0 mps 745 mmHg 71%

    3 June, Wednesday

    Time Temperature Precipitation Wind Pressure Humidity
    00:00 +8°C° 0 mm 1 mps 745 mmHg 71%
    01:00 +8°C° 0 mm 1 mps 745 mmHg 70%
    02:00 +8°C° 0 mm 1 mps 745 mmHg 70%
    03:00 +9°C° 0 mm 1 mps 745 mmHg 71%
    04:00 +9°C° 0 mm 1 mps 744 mmHg 73%
    05:00 +9°C° 0 mm 1 mps 744 mmHg 74%
    06:00 +11°C° 0 mm 1 mps 744 mmHg 70%
    07:00 +12°C° 0 mm 1 mps 744 mmHg 66%
    08:00 +14°C° 0 mm 1 mps 744 mmHg 62%
    09:00 +15°C° 0.1 mm 1 mps 744 mmHg 58%
    10:00 +16°C° 0.1 mm 1 mps 744 mmHg 55%
    11:00 +17°C° 0.1 mm 2 mps 743 mmHg 52%
    12:00 +17°C° 0.2 mm 2 mps 743 mmHg 54%
    13:00 +17°C° 0.2 mm 2 mps 743 mmHg 56%
    14:00 +17°C° 0.2 mm 2 mps 743 mmHg 58%
    15:00 +17°C° 0.2 mm 2 mps 742 mmHg 61%
    16:00 +17°C° 0.2 mm 2 mps 742 mmHg 64%
    17:00 +17°C° 0.2 mm 2 mps 742 mmHg 67%
    18:00 +15°C° 0.1 mm 2 mps 742 mmHg 75%
    19:00 +14°C° 0.1 mm 2 mps 741 mmHg 82%
    20:00 +12°C° 0.1 mm 2 mps 741 mmHg 90%
    21:00 +12°C° 0 mm 2 mps 741 mmHg 90%
    22:00 +12°C° 0 mm 2 mps 741 mmHg 89%
    23:00 +10°C° 0 mm 2 mps 742 mmHg 89%
    Show more